QPF
0.00 0.00 0.00 0.00 0.00 0.00 0.00 0.00 0.00 0.00 0.00 0.00 0.00 0.00 0.00 0.00 0.00 0.00 0.00 0.00 0.00 0.00 0.00 0.00 0.00 0.00 0.00 0.00 0.00 0.00 0.00 0.00
0.00 0.00 0.00 0.00 0.00 0.00 0.00 0.00 0.00 0.00 0.00 0.00 0.00 0.00 0.00 0.00 0.00 0.00 0.00 0.00 0.00 0.00 0.00 0.01 0.00 0.01 0.00 0.00 0.00 0.00 0.00 0.00
0.00 0.00 0.00 0.00 0.00 0.00 0.00 0.00 0.00 0.00 0.00 0.00 0.00 0.00 0.00 0.00 0.00 0.00 0.00 0.00 0.00 0.00 0.00 0.00 0.00 0.00 0.00 0.01 0.00 0.00 0.00 0.00
0.00 0.00 0.00 0.00 0.00 0.00 0.00 0.00 0.00 0.00 0.00 0.00 0.00 0.00 0.00 0.00 0.00 0.00 0.00 0.00 0.00 0.00 0.00 0.00 0.00 0.00 0.00 0.00 0.00 0.00 0.00 0.00
0.00 0.00 0.00 0.00 0.00 0.00 0.00 0.00 0.00 0.00 0.00 0.00 0.00 0.00 0.00 0.00 0.00 0.00 0.00 0.00 0.00 0.00 0.00 0.00 0.00 0.00 0.00 0.00 0.00 0.01 0.01 0.00
0.00 0.00 0.00 0.00 0.00 0.00 0.00 0.00 0.00 0.00 0.00 0.00 0.00 0.00 0.00 0.00 0.00 0.00 0.00 0.00 0.00 0.00 0.00 0.00 0.00 0.00 0.00 0.00 0.00 0.00 0.00 0.00
0.00 0.00 0.00 0.00 0.00 0.00 0.00 0.00 0.00 0.00 0.00 0.00 0.00 0.00 0.00 0.00 0.00 0.00 0.00 0.00 0.00 0.00 0.00 0.00 0.00 0.00 0.00 0.00 0.00 0.00 0.00 0.00
0.00 0.00 0.00 0.00 0.00 0.00 0.00 0.00 0.00 0.00 0.00 0.00 0.00 0.00 0.00 0.00 0.00 0.00 0.00 0.00 0.00 0.00 0.00 0.00 0.00 0.00 0.00 0.00 0.00 0.00 0.00 0.00
0.00 0.00 0.00 0.00 0.00 0.00 0.00 0.00 0.00 0.00 0.00 0.00 0.00 0.00 0.00 0.00 0.00 0.00 0.00 0.00 0.00 0.00 0.00 0.00 0.00 0.00 0.00 0.00 0.00 0.00 0.00 0.00
0.00 0.00 0.00 0.00 0.00 0.00 0.00 0.00 0.00 0.00 0.00 0.00 0.00 0.00 0.00 0.00 0.00 0.00 0.00 0.00 0.00 0.00 0.00 0.00 0.00 0.00 0.00 0.00 0.00 0.00 0.00 0.00
0.00 0.00 0.00 0.00 0.00 0.00 0.00 0.00 0.00 0.00 0.00 0.00 0.00 0.00 0.00 0.00 0.00 0.00 0.00 0.00 0.00 0.00 0.00 0.00 0.00 0.00 0.00 0.00 0.00 0.00 0.00 0.00
0.00 0.00 0.00 0.00 0.00 0.00 0.00 0.00 0.00 0.00 0.00 0.00 0.00 0.00 0.00 0.00 0.00 0.00 0.00 0.00 0.00 0.00 0.00 0.00 0.00 0.00 0.00 0.00 0.00 0.00 0.00 0.00
0.00 0.00 0.00 0.00 0.00 0.00 0.00 0.00 0.00 0.00 0.00 0.00 0.00 0.00 0.00 0.00 0.00 0.00 0.00 0.00 0.00 0.00 0.00 0.00 0.00 0.00 0.00 0.00 0.00 0.00 0.00 0.00
0.00 0.00 0.00 0.00 0.00 0.00 0.00 0.00 0.00 0.00 0.00 0.00 0.00 0.00 0.00 0.00 0.00 0.00 0.00 0.00 0.00 0.00 0.00 0.00 0.00 0.00 0.00 0.00 0.00 0.00 0.00 0.00
0.00 0.00 0.00 0.00 0.00 0.00 0.00 0.00 0.00 0.00 0.00 0.00 0.00 0.00 0.00 0.00 0.00 0.00 0.00 0.00 0.00 0.00 0.00 0.00 0.00 0.00 0.00 0.01 0.01 0.00 0.00 0.00
0.00 0.00 0.00 0.00 0.00 0.00 0.00 0.00 0.00 0.00 0.00 0.00 0.00 0.00 0.00 0.00 0.00 0.00 0.00 0.00 0.00 0.00 0.00 0.00 0.00 0.00 0.00 0.00 0.00 0.01 0.01 0.00
0.00 0.00 0.00 0.00 0.00 0.00 0.00 0.00 0.00 0.00 0.00 0.00 0.00 0.00 0.00 0.00 0.00 0.00 0.00 0.00 0.00 0.00 0.00 0.00 0.00 0.00 0.00 0.00 0.00 0.00 0.00 0.01
0.00 0.00 0.00 0.00 0.00 0.00 0.00 0.00 0.00 0.00 0.00 0.00 0.00 0.00 0.00 0.00 0.00 0.00 0.00 0.00 0.00 0.00 0.00 0.00 0.00 0.00 0.00 0.00 0.00 0.00 0.00 0.00
0.00 0.00 0.00 0.00 0.00 0.00 0.00 0.00 0.00 0.00 0.00 0.00 0.00 0.00 0.00 0.00 0.00 0.00 0.00 0.00 0.00 0.00 0.00 0.00 0.00 0.00 0.00 0.00 0.00 0.00 0.00 0.00
0.00 0.00 0.00 0.00 0.00 0.00 0.00 0.00 0.00 0.00 0.00 0.00 0.00 0.00 0.00 0.00 0.00 0.00 0.00 0.00 0.00 0.00 0.00 0.00 0.00 0.00 0.00 0.00 0.00 0.00 0.00 0.00
MSLP
1016.69 1016.61 1016.64 1016.74 1016.50 1016.50 1016.47 1016.36 1016.42 1016.32 1016.29 1016.30 1016.14 1015.93 1015.76 1015.69 1015.47 1015.20 1015.01 1014.72 1014.51 1014.57 1014.26 1013.95 1013.66 1013.39 1013.37 1013.32 1013.35 1013.47 1013.50 1013.39
1016.85 1017.09 1017.15 1017.25 1017.42 1017.17 1016.86 1016.91 1016.85 1016.83 1016.66 1016.62 1016.61 1016.47 1016.34 1016.18 1015.95 1015.62 1015.47 1015.17 1014.66 1014.79 1014.57 1014.13 1013.80 1013.42 1013.10 1013.00 1013.04 1013.05 1013.14 1012.98
1017.70 1017.64 1017.55 1017.50 1017.57 1017.56 1017.57 1017.43 1017.44 1017.43 1017.37 1017.23 1017.03 1016.93 1016.93 1016.94 1016.51 1016.31 1016.01 1015.78 1015.25 1014.92 1014.95 1014.60 1014.16 1013.70 1013.22 1012.85 1012.68 1012.59 1012.62 1012.46
1018.26 1018.16 1018.15 1018.00 1017.94 1018.07 1017.90 1017.81 1017.76 1017.71 1017.74 1017.87 1017.76 1017.62 1017.41 1017.32 1017.12 1016.79 1016.59 1016.32 1016.05 1015.43 1015.05 1014.97 1014.63 1014.33 1013.79 1013.31 1012.64 1012.27 1012.06 1012.01
1018.79 1018.58 1018.58 1018.58 1018.72 1018.67 1018.32 1018.31 1018.15 1018.04 1018.26 1018.06 1018.12 1018.22 1017.97 1017.91 1017.68 1017.42 1017.10 1016.80 1016.53 1016.01 1015.62 1015.34 1015.13 1014.70 1014.12 1013.70 1013.11 1012.53 1011.76 1011.45
1018.95 1018.75 1018.71 1018.85 1018.85 1018.95 1018.90 1018.66 1018.77 1018.74 1018.91 1018.81 1018.62 1018.47 1018.37 1018.35 1018.31 1018.02 1017.79 1017.49 1017.15 1016.67 1016.19 1015.79 1015.27 1014.83 1014.32 1013.71 1013.24 1012.77 1012.11 1011.43
1019.32 1019.16 1019.25 1019.16 1019.14 1019.13 1019.03 1019.35 1019.48 1019.43 1019.40 1019.41 1019.46 1019.31 1019.02 1018.74 1018.37 1018.17 1018.12 1017.95 1017.52 1017.00 1016.38 1015.88 1015.43 1014.87 1014.37 1013.81 1013.15 1012.75 1012.32 1011.71
1019.68 1019.77 1019.75 1019.53 1019.67 1019.61 1019.70 1019.54 1019.83 1020.10 1020.19 1019.95 1019.76 1019.81 1019.66 1019.28 1018.81 1018.35 1018.05 1017.91 1017.65 1017.18 1016.59 1015.93 1015.44 1014.92 1014.37 1013.85 1013.42 1012.93 1012.35 1011.89
1019.75 1019.86 1020.00 1020.06 1020.07 1020.23 1020.37 1020.36 1020.35 1020.43 1020.71 1020.65 1020.31 1020.12 1020.01 1019.71 1019.36 1019.05 1018.61 1018.08 1017.56 1017.16 1016.70 1015.95 1015.35 1014.77 1014.27 1013.77 1013.32 1012.75 1012.18 1011.59
1019.95 1020.20 1020.43 1020.55 1020.73 1020.71 1020.82 1021.02 1020.99 1021.10 1021.16 1021.03 1020.90 1020.61 1020.32 1020.09 1019.79 1019.50 1019.04 1018.47 1017.86 1017.36 1016.87 1016.33 1015.52 1014.75 1014.01 1013.40 1012.91 1012.40 1011.94 1011.39
1020.61 1020.50 1020.97 1021.05 1020.98 1021.18 1021.44 1021.65 1021.73 1021.82 1021.74 1021.59 1021.38 1021.05 1020.72 1020.46 1020.17 1019.87 1019.39 1018.69 1018.25 1017.59 1016.96 1016.66 1015.78 1014.78 1013.88 1013.02 1012.51 1011.95 1011.34 1010.73
1020.97 1020.92 1021.07 1021.32 1021.47 1021.72 1021.88 1022.08 1022.31 1022.33 1022.25 1022.15 1022.00 1021.73 1021.31 1020.95 1020.59 1020.26 1019.74 1019.23 1018.27 1017.80 1017.22 1016.59 1016.11 1015.07 1013.66 1012.60 1011.88 1011.24 1010.63 1010.39
1021.59 1021.68 1021.69 1021.71 1021.88 1022.26 1022.59 1022.86 1022.88 1022.86 1022.56 1022.41 1022.16 1021.92 1021.67 1021.40 1021.18 1020.71 1020.17 1019.44 1018.94 1018.35 1017.79 1016.56 1016.09 1015.30 1014.00 1012.36 1011.00 1009.95 1010.26 1010.11
1022.15 1021.99 1022.19 1022.32 1022.28 1022.54 1022.80 1023.14 1023.23 1023.19 1023.11 1022.78 1022.47 1022.12 1021.93 1021.64 1021.63 1021.13 1020.26 1019.75 1019.35 1018.76 1018.13 1017.44 1016.18 1015.99 1015.02 1013.60 1011.53 1010.41 1009.97 1009.77
1022.56 1022.54 1022.45 1022.60 1022.63 1022.99 1023.33 1023.35 1023.47 1023.48 1023.37 1023.16 1022.85 1022.59 1022.37 1022.02 1021.87 1021.47 1020.94 1020.35 1019.71 1019.21 1018.62 1018.07 1017.11 1016.43 1015.70 1015.20 1013.49 1012.21 1011.52 1009.98
1022.86 1023.11 1022.98 1022.97 1023.17 1023.46 1023.94 1024.10 1024.17 1024.30 1024.12 1023.67 1023.49 1023.18 1022.83 1022.41 1022.14 1021.82 1021.32 1020.69 1020.28 1019.58 1019.38 1018.48 1018.24 1017.11 1016.24 1015.20 1015.20 1014.40 1012.81 1010.93
1023.03 1023.40 1023.66 1023.67 1023.73 1023.94 1024.38 1024.78 1024.77 1024.67 1024.48 1024.27 1023.94 1023.57 1023.40 1023.07 1022.89 1022.46 1021.82 1021.55 1020.81 1020.43 1019.51 1019.14 1018.75 1018.04 1017.24 1016.32 1015.52 1014.43 1013.42 1012.45
1023.33 1023.40 1023.75 1024.09 1024.29 1024.47 1024.64 1024.80 1025.22 1025.37 1025.15 1024.49 1024.48 1024.03 1023.88 1023.74 1023.24 1022.70 1022.58 1021.87 1021.24 1020.82 1020.36 1019.66 1019.20 1018.51 1017.88 1017.24 1016.56 1015.71 1014.49 1013.86
1023.68 1023.78 1024.10 1024.28 1024.67 1025.08 1025.19 1025.68 1025.47 1025.58 1025.32 1025.23 1025.09 1024.75 1024.54 1024.18 1023.68 1023.38 1022.98 1022.61 1022.03 1021.46 1021.14 1020.30 1019.75 1019.05 1018.44 1017.84 1017.20 1016.35 1015.57 1014.71
1023.52 1024.01 1024.27 1024.48 1024.99 1025.51 1025.76 1025.98 1025.82 1025.97 1025.73 1025.58 1025.46 1025.28 1025.09 1024.62 1024.23 1023.99 1023.67 1023.24 1022.72 1021.98 1021.48 1020.96 1020.41 1019.81 1019.17 1018.39 1017.57 1016.76 1016.02 1015.34
Thickness
5678 5679 5678 5676 5676 5675 5675 5675 5674 5674 5673 5672 5672 5671 5670 5670 5671 5672 5672 5675 5676 5673 5675 5678 5680 5683 5682 5682 5681 5680 5680 5683
5673 5671 5669 5667 5664 5664 5666 5665 5664 5664 5664 5664 5663 5663 5662 5662 5662 5664 5663 5665 5671 5667 5668 5672 5675 5678 5680 5681 5679 5679 5679 5681
5661 5661 5660 5659 5658 5657 5656 5655 5654 5654 5654 5653 5654 5655 5653 5651 5653 5654 5655 5656 5660 5663 5661 5664 5667 5671 5674 5678 5679 5679 5678 5680
5652 5652 5652 5651 5649 5649 5648 5647 5647 5646 5645 5643 5643 5644 5644 5643 5643 5645 5647 5648 5649 5654 5657 5657 5660 5663 5666 5669 5675 5677 5678 5678
5642 5643 5641 5640 5638 5637 5639 5637 5638 5637 5634 5635 5634 5632 5634 5633 5633 5636 5638 5640 5642 5647 5649 5651 5652 5656 5660 5663 5667 5671 5676 5678
5634 5634 5632 5630 5630 5628 5626 5627 5626 5625 5622 5622 5623 5624 5624 5623 5622 5624 5626 5629 5632 5636 5640 5642 5646 5649 5653 5658 5662 5665 5669 5674
5623 5623 5621 5621 5620 5619 5619 5614 5612 5612 5611 5609 5608 5610 5612 5613 5615 5616 5615 5616 5619 5624 5630 5634 5637 5641 5646 5650 5655 5658 5662 5666
5611 5610 5608 5609 5606 5606 5605 5605 5601 5597 5596 5598 5597 5596 5597 5600 5603 5606 5607 5608 5609 5613 5619 5625 5629 5632 5637 5641 5646 5649 5653 5657
5606 5602 5599 5596 5595 5591 5589 5588 5587 5586 5582 5581 5582 5583 5583 5585 5587 5590 5592 5595 5599 5602 5606 5613 5619 5624 5628 5632 5635 5640 5645 5650
5595 5590 5586 5584 5580 5579 5575 5571 5570 5568 5566 5566 5565 5566 5567 5568 5570 5573 5577 5580 5583 5587 5591 5596 5604 5612 5618 5623 5627 5632 5636 5640
5578 5576 5570 5570 5568 5563 5559 5555 5552 5550 5548 5547 5547 5548 5549 5550 5551 5553 5557 5564 5567 5572 5576 5579 5587 5596 5605 5614 5618 5623 5627 5632
5564 5561 5561 5556 5552 5548 5544 5541 5535 5532 5530 5528 5528 5528 5530 5531 5532 5534 5537 5541 5549 5553 5559 5564 5567 5577 5591 5601 5608 5612 5617 5619
5546 5544 5542 5540 5537 5531 5525 5520 5518 5515 5513 5511 5511 5510 5510 5511 5512 5514 5517 5523 5527 5531 5536 5547 5548 5556 5569 5587 5597 5606 5604 5606
5532 5530 5527 5523 5521 5516 5512 5506 5502 5499 5496 5495 5494 5495 5494 5493 5492 5494 5499 5503 5505 5510 5516 5522 5533 5532 5542 5556 5579 5584 5593 5591
5516 5514 5515 5512 5508 5502 5497 5494 5489 5486 5482 5480 5478 5477 5476 5476 5475 5476 5477 5480 5484 5488 5493 5498 5507 5511 5518 5524 5546 5558 5561 5570
5502 5502 5499 5497 5493 5489 5483 5478 5474 5468 5466 5465 5463 5460 5460 5460 5459 5458 5458 5461 5463 5468 5468 5476 5478 5488 5496 5506 5507 5517 5534 5551
5494 5489 5485 5482 5479 5474 5467 5461 5458 5455 5454 5451 5451 5449 5446 5445 5443 5441 5443 5442 5444 5446 5451 5454 5457 5463 5469 5477 5485 5497 5506 5520
5481 5478 5474 5470 5465 5461 5457 5453 5445 5440 5438 5441 5437 5437 5433 5431 5431 5431 5428 5429 5431 5431 5432 5437 5439 5444 5448 5453 5460 5468 5479 5486
5470 5467 5462 5458 5453 5447 5443 5436 5433 5430 5429 5427 5424 5423 5421 5419 5419 5417 5416 5415 5415 5416 5417 5422 5423 5427 5431 5435 5440 5448 5455 5462
5464 5458 5453 5449 5442 5435 5430 5426 5424 5420 5419 5417 5414 5411 5407 5407 5406 5404 5403 5403 5404 5406 5406 5407 5409 5411 5414 5419 5425 5433 5440 5446